Location: Gälforsberget
(66.6500°N, 22.4167°E)
Time: 15:37:26
(UTC+00:00)

SL-08 R/B - Pass Details

Date: 11 April 2026
Orbit: 667 x 728 km, 98.5° (Epoch: 17 May)

Event Time Altitude Azimuth Distance (km) Brightness Sun altitude
Rises 20:35:14 0° 24° (NNE) 3,123 7.2 -11.9°
Reaches altitude 10° 20:37:31 10° 20° (NNE) 2,209 6.5 -12.0°
Maximum altitude 20:42:14 54° 304° (WNW) 878 4.2 -12.2°
Drops below altitude 10° 20:47:00 10° 228° (SW) 2,225 5.7 -12.4°
Sets 20:49:19 0° 224° (SW) 3,148 6.5 -12.5°
